Ranking: BATMAN SAW GAME
12495 Jugadores ayudaron a Batman a rescatar Batichica
Our first winner!
  Nombres Mensaje Fecha Puntaje
1MASTERWORLDHDEW masterworldhdew2014-08-01 04:07131610
Ranking Top 10
  Nombres Mensaje Fecha Puntaje
1EL CASTRI bueno2014-11-06 12:52141675
2JAS JAS2014-11-06 08:33141665
3AXXL really nice trick2015-08-08 11:00141538
4EL CASTRI bueno2014-10-23 12:29141433
5JAS PRIMER LUGAR....2014-09-03 11:58141393
6ENTER HERE YOUR NAME... feer2015-09-22 07:59141390
7JAS JAS2014-09-03 11:47141249
8EL CASTRI bueno2014-10-24 05:04141228
9ENTER HERE YOUR NAME... fsong2015-09-25 21:45141201
10EL CASTRI. bueno2014-10-02 04:09141119
1 2 3 4 5 6 7 8 9 10 11 12 13 14 15 16 17 18 19 20 21 22 23 24 25 26 27 28 29 30 31 32
Ranking General de Ganadores
  Nombres Mensaje Fecha Puntaje
1201LIGHTNING inkagames2015-12-04 05:41127926
1202MAURO... por que no fernan porquenofernanfloo2015-12-03 21:55124319
1203JUAN CAMILO el de charlie y la fabrica de chocolates o el de fredy night2015-12-03 20:24124929
1204THOMAS GALEANO fernanfloo2015-12-03 19:50125046
1205ALEJANDRA CAMILA NEGRETE LEóN Este juego me encanto espero le den mugusta y megustaria que hagan uno de frozen.2015-12-03 19:46120169
1206ROBERT superman saw game2015-12-03 17:53123287
1207WLLIAM facil2015-12-03 16:49126007
1208RAFAEL a five nigh at freddy2015-12-03 15:56123963
1209INGRESA AQUí TU NOMBRE... barbie ba barbie barbie2015-12-03 15:50124660
1210SEBASTIAN currado esta chulo2015-12-03 15:49124452
1211JEJE The Joker saw game plz :s2015-12-03 15:48125398
1212YAKSON YHONFREIVER belga hel mio khe le ponghan hal reyy TUKYY2015-12-03 14:01123311
1213ALLEN quisira jugar campamento leiboton2015-12-03 13:52130797
1214TOBIAS16 EEEEEE 50 502015-12-03 13:14128371
1215LIONEL MESSI pantera rosa saw game2015-12-03 13:10124049
1216ESTEBAN ARREOLA vegetta777 saw game2015-12-03 12:53124705
1217RONALD MUY DIVETIGO ME GUSTAAAAA2015-12-03 12:48125124
1218FRANCISCO hacer gujar a spiderman2015-12-03 12:30123133
1219INKA GAME FAN superman2015-12-03 11:37125021
1220INGRESA AQUí TU NOMBRE... hyhh2015-12-03 11:33130960
1221INGRESA AQUí TU NOMBRE... okij2015-12-03 11:12124252
1222ESSSA gg2015-12-03 00:39123734
1223BENJAMIN nada2015-12-02 19:38129748
122498564 hola2015-12-02 17:35123659
1225GRANDOTEGAME fernanfloo fernanfloo2015-12-02 11:40122906
1226STONE alexby2015-12-02 11:01123040
1227THEGAMERSEBASPRO.. me encantan estos tipos de juegos pueden hacer uno de five nights at freddys2015-12-02 07:19124044
1228BODILA1 i hate you dude i had to wacth a video to do this2015-12-01 23:48123844
1229MIGUEL ANGEL ALTAMIRANO GONZALES es genial esmuy genial2015-12-01 21:26128531
1230RONALD muy chulo Gustaaaaaa2015-12-01 21:03122120
1231DANIGAMER fernanfloo2015-12-01 20:17124323
1232ESTELA FLORES el increible mundo de gumball el increible mundo de gumball saw game2015-12-01 20:16121970
1233ZANE muy bueno2015-12-01 19:43122480
1234TOBIAS mi comentario es que todos sus juegos estan chulos estan re piolas sigan asi2015-12-01 17:12123123
1235DIAMON77 Uno de digimon 12015-12-01 16:55125008
1236EYTAN esta bien bueno ,jueguenlo2015-12-01 15:50122694
1237LUCAS Poco tempo mais demoro2015-12-01 15:44127708
1238JOSE JAVIER Saw:Harley Quinn2015-12-01 15:35126033
1239JHON JAIRO FANTASTICO2015-12-01 14:57127997
1240DANIEL huason saw game2015-12-01 14:53135123
1241LAURA Nueva victima: Blancanieves2015-12-01 14:53126001
1242VECTOR. wow2015-12-01 14:45123672
1243INGRESA AQUí TU NOSJMBRE.. nnn2015-12-01 14:41124567
1244XXBYMELOXX MUY BUENON LA PROXIMA COLOQUEN MAS FACILES LAS CLAVES2015-12-01 14:37125569
1245JUSEPE jason2015-12-01 14:24123043
1246ALDANA envien a alfredito o a juegagerman2015-12-01 14:10123601
1247INGRESA AQUí TU NOMBRE... hora de aventura2015-12-01 13:28130541
1248AUGUSTO fiin2015-12-01 13:23122625
1249CIPRIAN Super2015-12-01 12:24128679
1250OMARFER gustaaaaaaaa :)2015-12-01 11:26124445